UAL1078 KEWR-MDPP

Flight info

Callsign UAL1078
Flight time N/A
Altitude 34000
Route ELVAE DCT NECCK DCT WHITE Q409 CRPLR DCT BGBRD Q101 SKARP Y313 IDOLS DCT RROOO Y323 CARPX Y307 NUCAR/N0462F350 Y374 RUMFO Y441 JUELE UL463 PTA
Aircraft A320/M-SDE3FGHIRWY/LB1

Departure

Time 2026-04-24 09:46
Airport Newark Liberty International Airport (KEWR)

Arrival

Time N/A
Airport Gregorio Luperon International Airport (MDPP)
Time Latitude Longitude Altitude Speed Heading
2026-04-24 09:04 40.69907 -74.17789 32 ft 0 kts 244°
2026-04-24 09:33 40.69916 -74.17766 22 ft 4 kts 243°
2026-04-24 09:33 40.69927 -74.17739 23 ft 2 kts 258°
2026-04-24 09:34 40.69929 -74.17728 25 ft 4 kts 299°
2026-04-24 09:34 40.69927 -74.17709 25 ft 4 kts 242°
2026-04-24 09:34 40.69935 -74.17691 25 ft 4 kts 209°
2026-04-24 09:34 40.69953 -74.17682 23 ft 4 kts 193°
2026-04-24 09:35 40.69977 -74.17682 23 ft 4 kts 141°
2026-04-24 09:35 40.69986 -74.17709 27 ft 4 kts 89°
2026-04-24 09:35 40.69984 -74.17744 24 ft 4 kts 88°
2026-04-24 09:35 40.69984 -74.17762 23 ft 1 kts 94°
2026-04-24 09:36 40.69984 -74.17764 23 ft 0 kts 94°
2026-04-24 09:38 40.69984 -74.17754 24 ft 2 kts 95°
2026-04-24 09:38 40.69982 -74.17723 22 ft 5 kts 95°
2026-04-24 09:38 40.69978 -74.17670 22 ft 7 kts 95°
2026-04-24 09:38 40.69973 -74.17595 24 ft 9 kts 95°
2026-04-24 09:39 40.69966 -74.17499 22 ft 12 kts 95°
2026-04-24 09:39 40.69948 -74.17384 22 ft 14 kts 110°
2026-04-24 09:39 40.69893 -74.17269 22 ft 16 kts 130°
2026-04-24 09:39 40.69816 -74.17164 23 ft 16 kts 138°
2026-04-24 09:40 40.69726 -74.17076 22 ft 16 kts 150°
2026-04-24 09:40 40.69624 -74.17016 24 ft 16 kts 159°
2026-04-24 09:40 40.69515 -74.16978 22 ft 16 kts 171°
2026-04-24 09:40 40.69403 -74.16970 22 ft 16 kts 183°
2026-04-24 09:41 40.69291 -74.16996 22 ft 17 kts 197°
2026-04-24 09:41 40.69183 -74.17058 22 ft 17 kts 206°
2026-04-24 09:41 40.69077 -74.17127 21 ft 17 kts 204°
2026-04-24 09:41 40.68969 -74.17195 22 ft 17 kts 206°
2026-04-24 09:42 40.68864 -74.17264 22 ft 17 kts 205°
2026-04-24 09:42 40.68757 -74.17331 23 ft 17 kts 206°
2026-04-24 09:42 40.68648 -74.17400 23 ft 18 kts 206°
2026-04-24 09:42 40.68534 -74.17473 23 ft 19 kts 206°
2026-04-24 09:43 40.68409 -74.17552 24 ft 20 kts 206°
2026-04-24 09:43 40.68301 -74.17621 22 ft 15 kts 205°
2026-04-24 09:43 40.68205 -74.17683 22 ft 15 kts 207°
2026-04-24 09:43 40.68116 -74.17740 22 ft 14 kts 205°
2026-04-24 09:44 40.68040 -74.17771 22 ft 10 kts 159°
2026-04-24 09:44 40.68001 -74.17683 20 ft 13 kts 114°
2026-04-24 09:44 40.67962 -74.17569 20 ft 14 kts 114°
2026-04-24 09:44 40.67955 -74.17440 21 ft 15 kts 81°
2026-04-24 09:45 40.67984 -74.17300 20 ft 11 kts 68°
2026-04-24 09:45 40.68004 -74.17270 22 ft 0 kts 27°
2026-04-24 09:45 40.68015 -74.17264 20 ft 3 kts 26°
2026-04-24 09:45 40.68176 -74.17162 22 ft 59 kts 25°
2026-04-24 09:46 40.68739 -74.16803 21 ft 122 kts 26°
2026-04-24 09:46 40.69672 -74.16210 53 ft 172 kts 26°
2026-04-24 09:46 40.70737 -74.15475 720 ft 174 kts 34°
2026-04-24 09:46 40.71662 -74.14453 1477 ft 173 kts 40°
2026-04-24 09:47 40.72574 -74.13311 1767 ft 190 kts 41°
2026-04-24 09:47 40.73553 -74.12046 1985 ft 211 kts 41°
2026-04-24 09:47 40.74676 -74.10644 2246 ft 233 kts 36°
2026-04-24 09:47 40.76187 -74.09860 2747 ft 241 kts 359°
2026-04-24 09:48 40.77784 -74.10540 3417 ft 245 kts 321°
2026-04-24 09:48 40.78774 -74.12325 4210 ft 247 kts 297°
2026-04-24 09:48 40.79342 -74.14449 5093 ft 247 kts 276°
2026-04-24 09:48 40.79083 -74.16689 5933 ft 253 kts 249°
2026-04-24 09:49 40.78127 -74.18662 6753 ft 258 kts 239°
2026-04-24 09:49 40.76985 -74.20514 7451 ft 265 kts 231°
2026-04-24 09:49 40.75386 -74.21862 8104 ft 287 kts 206°
2026-04-24 09:49 40.73402 -74.22504 8734 ft 297 kts 200°
2026-04-24 09:50 40.71356 -74.23074 9362 ft 303 kts 200°
2026-04-24 09:50 40.69270 -74.23641 9966 ft 309 kts 200°
2026-04-24 09:50 40.67117 -74.24226 10234 ft 327 kts 200°
2026-04-24 09:50 40.64817 -74.24862 10363 ft 348 kts 199°
2026-04-24 09:51 40.62377 -74.25542 10488 ft 368 kts 199°
2026-04-24 09:51 40.59803 -74.26259 10609 ft 387 kts 199°
2026-04-24 09:51 40.57075 -74.26803 10887 ft 406 kts 189°
2026-04-24 09:51 40.54215 -74.26709 11359 ft 418 kts 178°
2026-04-24 09:52 40.51334 -74.25941 11871 ft 428 kts 167°
2026-04-24 09:52 40.48506 -74.24591 12385 ft 434 kts 162°
2026-04-24 09:52 40.45675 -74.23178 12923 ft 437 kts 162°
2026-04-24 09:52 40.42853 -74.21777 13477 ft 440 kts 162°
2026-04-24 09:53 40.39976 -74.20355 14000 ft 444 kts 162°
2026-04-24 09:53 40.37077 -74.18922 14502 ft 447 kts 162°
2026-04-24 09:53 40.34113 -74.17726 14992 ft 446 kts 172°
2026-04-24 09:53 40.31054 -74.17142 15500 ft 443 kts 181°
2026-04-24 09:54 40.27989 -74.17191 16012 ft 439 kts 191°
2026-04-24 09:54 40.24991 -74.17838 16524 ft 435 kts 199°
2026-04-24 09:54 40.22039 -74.18735 17076 ft 436 kts 199°
2026-04-24 09:54 40.19069 -74.19632 17605 ft 438 kts 199°
2026-04-24 09:55 40.16093 -74.20527 18115 ft 440 kts 199°
2026-04-24 09:55 40.13100 -74.21425 18546 ft 443 kts 199°
2026-04-24 09:55 40.10088 -74.22328 18966 ft 445 kts 199°
2026-04-24 09:55 40.07063 -74.23232 19386 ft 447 kts 199°
2026-04-24 09:56 40.04025 -74.24167 19781 ft 448 kts 202°
2026-04-24 09:56 40.01111 -74.25504 20212 ft 441 kts 211°
2026-04-24 09:56 39.98441 -74.27328 20592 ft 435 kts 219°
2026-04-24 09:56 39.95981 -74.29584 20961 ft 433 kts 224°
2026-04-24 09:57 39.93548 -74.31918 21327 ft 434 kts 224°
2026-04-24 09:57 39.91104 -74.34255 21674 ft 436 kts 224°
2026-04-24 09:57 39.88650 -74.36597 21999 ft 438 kts 224°
2026-04-24 09:57 39.86188 -74.38941 22318 ft 440 kts 223°
2026-04-24 09:58 39.83707 -74.41295 22611 ft 442 kts 223°
2026-04-24 09:58 39.81303 -74.43782 22928 ft 438 kts 230°
2026-04-24 09:58 39.79157 -74.46575 23241 ft 436 kts 233°
2026-04-24 09:58 39.77058 -74.49371 23570 ft 436 kts 233°
2026-04-24 09:59 39.74936 -74.52191 23947 ft 435 kts 233°
2026-04-24 09:59 39.72817 -74.55003 24301 ft 435 kts 233°
2026-04-24 09:59 39.70702 -74.57803 24664 ft 434 kts 233°
2026-04-24 09:59 39.68586 -74.60600 25025 ft 434 kts 233°
2026-04-24 10:00 39.66474 -74.63392 25393 ft 433 kts 233°
2026-04-24 10:00 39.64364 -74.66180 25768 ft 433 kts 233°
2026-04-24 10:00 39.62254 -74.68962 26147 ft 432 kts 233°
2026-04-24 10:00 39.60149 -74.71737 26530 ft 432 kts 233°
2026-04-24 10:01 39.58040 -74.74512 26920 ft 431 kts 233°
2026-04-24 10:01 39.55933 -74.77283 27308 ft 431 kts 233°
2026-04-24 10:01 39.53827 -74.80051 27694 ft 430 kts 233°
2026-04-24 10:01 39.51726 -74.82812 28093 ft 430 kts 233°
2026-04-24 10:02 39.49627 -74.85569 28481 ft 429 kts 233°
2026-04-24 10:02 39.47556 -74.88283 28861 ft 429 kts 233°
2026-04-24 10:02 39.45459 -74.91025 29290 ft 428 kts 233°
2026-04-24 10:02 39.43364 -74.93759 29706 ft 427 kts 233°
2026-04-24 10:03 39.41273 -74.96485 30082 ft 426 kts 233°
2026-04-24 10:03 39.39188 -74.99207 30421 ft 426 kts 233°
2026-04-24 10:03 39.37104 -75.01926 30767 ft 425 kts 233°
2026-04-24 10:03 39.35024 -75.04636 31110 ft 424 kts 233°
2026-04-24 10:04 39.32946 -75.07340 31434 ft 424 kts 233°
2026-04-24 10:04 39.30874 -75.10039 31779 ft 423 kts 233°
2026-04-24 10:04 39.28785 -75.12713 32095 ft 423 kts 232°
2026-04-24 10:04 39.26637 -75.15313 32461 ft 424 kts 230°
2026-04-24 10:05 39.24450 -75.17857 32807 ft 424 kts 230°
2026-04-24 10:05 39.22239 -75.20381 33144 ft 423 kts 230°
2026-04-24 10:05 39.20037 -75.22890 33448 ft 423 kts 230°
2026-04-24 10:05 39.17841 -75.25409 33748 ft 422 kts 230°
2026-04-24 10:06 39.11221 -75.33129 33854 ft 437 kts 230°
2026-04-24 10:07 39.06699 -75.38411 33848 ft 445 kts 230°
2026-04-24 10:07 39.01460 -75.42892 33838 ft 464 kts 211°
2026-04-24 10:08 38.95108 -75.45045 33857 ft 483 kts 192°
2026-04-24 10:08 38.88416 -75.45963 33845 ft 483 kts 193°
2026-04-24 10:09 38.81728 -75.46886 33864 ft 484 kts 193°
2026-04-24 10:09 38.75036 -75.47810 33876 ft 484 kts 193°
2026-04-24 10:10 38.68340 -75.48738 33882 ft 484 kts 193°
2026-04-24 10:10 38.61682 -75.49642 33860 ft 484 kts 192°
2026-04-24 10:11 38.54968 -75.50543 33871 ft 484 kts 192°
2026-04-24 10:11 38.48261 -75.51449 33874 ft 484 kts 192°
2026-04-24 10:12 38.41554 -75.52358 33850 ft 484 kts 193°
2026-04-24 10:12 38.34997 -75.53911 33860 ft 472 kts 206°
2026-04-24 10:13 38.29209 -75.57472 33865 ft 455 kts 222°
2026-04-24 10:13 38.24030 -75.62002 33869 ft 454 kts 222°
2026-04-24 10:14 38.18811 -75.66543 33867 ft 455 kts 222°